Workout of the Day

« September 7, 2022 »

4 x 6 minutes with rate changes. 2 minutes rest between intervals.

4 x 6 minutes of work with two minutes rest between intervals. Each 6 minute interval is split into 3 minutes then 2 minutes then 1 minute at different stroke rates or cadence. RowErg: 3 minutes at 22, 2 minutes at 24, 1 minute at 28. SkiErg: 3 minutes at 33, 2 minutes at 36, 1 minute at 42. BikeErg: 3 minutes at 78, 2 minutes at 82, 1 minute at 90.

Pos. Name Age Country Result Pace
1051 Erin Ferrari 41 USA 5,005 2:23.8
1052 T H 47 GER 5,004 2:23.8
1053 Shaye Woodward 51 USA 5,002 2:23.9
1054 Stuart Cunniffe 58 GBR 5,001 2:23.9
1055 Stephan Fröde 47 GER 4,999 2:24.0
1056 Kyle Benbow 64 USA 4,998 2:24.0
1056 Chaney Brown 42 USA 4,998 2:24.0
1058 Pablo Blanco Laiz 38 ESP 4,997 2:24.0
1058 Thorsten Kaiser 45 GER 4,997 2:24.0
1060 Dana Spisak 48 USA 4,995 2:24.1
1060 Marcel Remmelzwaal 50 NED 4,995 2:24.1
1062 Steve b 59 USA 4,991 2:24.2
1063 Florian Grimm 37 GER 4,988 2:24.3
1063 Monica Pfeifer 52 AUT 4,988 2:24.3
1063 Ryan Jenkins 47 USA 4,988 2:24.3
1066 Rosalie McHugh Rheaume 58 USA 4,987 2:24.3
1067 Michael Sermarini 36 USA 4,985 2:24.4
1067 Ole Henrik Eriksen 37 NOR 4,985 2:24.4
1069 Leslie Hartman 42 USA 4,984 2:24.4
1070 Neil McWilliam 52 GBR 4,982 2:24.5
1071 Geoff Greene 51 USA 4,981 2:24.5
1071 Bob Berrigan 61 USA 4,981 2:24.5
1071 delphine allanic 45 FRA 4,981 2:24.5
1074 Mikołaj Grabowski 26 POL 4,980 2:24.5
1075 Mike Viggiano 51 USA 4,978 2:24.6
1075 Chris Mewes 46 GBR 4,978 2:24.6
1077 Matt Zimo 36 USA 4,977 2:24.6
1077 Andrew Creasey 69 AUS 4,977 2:24.6
1079 Jesse Slay 30 USA 4,976 2:24.6
1079 Seth H 49 USA 4,976 2:24.6
1081 Charles Perry 45 USA 4,975 2:24.7
1081 Antis Kaplanis 55 CYP 4,975 2:24.7
1083 Evan Emmink 39 NED 4,970 2:24.8
1083 Robert Thurston 56 USA 4,970 2:24.8
1085 Diana Holman 51 USA 4,968 2:24.9
1086 Jessie Ysalina 52 USA 4,967 2:24.9
1087 Ma B 60 USA 4,966 2:24.9
1088 Cynthe Corey 44 USA 4,964 2:25.0
1089 Paul Rose 56 GBR 4,962 2:25.1
1090 S J Potts 54 GBR 4,961 2:25.1
1091 Maybel Salomon 52 VEN 4,958 2:25.2
1092 Robert Birdsell 36 USA 4,957 2:25.2
1092 Leah Mason 38 USA 4,957 2:25.2
1094 Jules Bardwell 52 GBR 4,955 2:25.3
1095 Katie Drennan 67 USA 4,952 2:25.3
1095 Kyle Lichti 28 USA 4,952 2:25.3
1097 Paul Neuman 67 USA 4,951 2:25.4
1098 Kathleen Woods-Smith 64 USA 4,949 2:25.4
1098 Steve Bushey 64 USA 4,949 2:25.4
1100 Caroline Woywadt 50 GER 4,947 2:25.5